Regional Weather Roundup
Issued by NWS Portland, ME

Home | Current Version | Previous Version | Text Only | Print | Product List | Glossary On
Versions: 1 2 3 4 5 6 7 8 9 10 11 12 13 14 15 16 17 18 19 20 21 22 23 24 25 26 27 28 29 30 31 32 33 34 35 36 37 38 39 40 41 42 43 44 45 46 47 48 49 50
000
ASUS41 KGYX 040710
RWRGYX
WEATHER ROUNDUP FOR MAINE AND NEW HAMPSHIRE
NATIONAL WEATHER SERVICE GRAY ME
300 AM EDT TUE AUG 04 2015

MEZ002-005-006-010-012-015-018-020-021-024-026-027-029-040800-
MAINE

CITY           SKY/WX    TMP DP  RH WIND       PRES   REMARKS
PORTLAND       CLEAR     66  64  93 SW3       29.79R
SANFORD        PTCLDY    63  57  82 CALM      29.81R
BAR HARBOR     CLOUDY    64  64 100 CALM      29.81R
WISCASSET      PTCLDY    65  64  97 CALM      29.81R FOG
ROCKLAND       CLOUDY    63  61  94 CALM      29.79R
FRYEBURG       PTCLDY    61  61 100 CALM      29.80F FOG
LEWISTONAUBURN PTCLDY    63  61  94 CALM      29.80R
AUGUSTA        MOCLDY    65  63  93 CALM      29.80R FOG
WATERVILLE     PTCLDY    64  61  88 CALM      29.77R
BANGOR         CLOUDY    66  65  96 SE5       29.79F
GREENVILLE       N/A     59  58  96 CALM      29.80F
MILLINOCKET    PTCLDY    63  61  93 CALM      29.80F FOG
HOULTON        MOCLDY    65  63  93 S6        29.77S
PRESQUE ISLE   MOCLDY    61  57  88 CALM      29.76F VSB 1
FRENCHVILLE    MOCLDY    61  59  93 S8        29.76F
CARIBOU        CLOUDY    62  60  93 CALM      29.76S
$$

NHZ002-005-008-009-011-012-014-040800-
NEW HAMPSHIRE

CITY           SKY/WX    TMP DP  RH WIND       PRES   REMARKS
PORTSMOUTH     MOCLDY    68  64  87 SW5       29.79R
ROCHESTER      PTCLDY    65  63  93 CALM      29.80R
NASHUA         PTCLDY    71  68  90 CALM      29.81S
MANCHESTER     PTCLDY    73  67  81 S5        29.79S
CONCORD        FOG       65  63  93 CALM      29.81R VSB 1/4
LACONIA        MOCLDY    64  61  88 SW5       29.81R
PLYMOUTH       FOG       63  63 100 CALM      29.81S VSB 3/4
BERLIN         FOG       58  57  97 CALM      29.82S VSB 1/4
WHITEFIELD     MOCLDY    58  56  93 CALM      29.82S FOG
JAFFREY        PTCLDY    67  65  93 S5        29.85R
KEENE          PTCLDY    64  57  77 CALM      29.84R
LEBANON        MOCLDY    64  62  93 CALM      29.81R FOG
MT WASHINGTON  LGT RAIN  50  50 100 W30         N/A  VSB 0
$$

VTZ005-007-008-040800-
VERMONT

CITY           SKY/WX    TMP DP  RH WIND       PRES   REMARKS
ST JOHNSBURY     N/A     62  59  90 MISG      29.79S
MONTPELIER     MOCLDY    61  59  93 CALM      29.85R
$$

MAZ007-012-024-CTZ003-RIZ002-NYZ038-NYZ072-040800-
SOUTHERN NEW ENGLAND AND NY

CITY           SKY/WX    TMP DP  RH WIND       PRES   REMARKS
BOSTON         CLEAR     74  70  87 SW12      29.81S
WORCESTER      CLOUDY    69  68  96 SW8       29.86R FOG
NANTUCKET      MOCLDY    73  71  93 SW12      29.86S
PROVIDENCE     PTCLDY    76  71  85 SW7       29.83S
HARTFORD       CLOUDY    73  70  90 S8        29.81S
ALBANY         CLOUDY    68  65  90 CALM      29.82S
NEW YORK CITY  MOCLDY    80  67  64 SW12      29.81S
$$

ANZ081-ANZ082-ANZ150-NHZ014-MEZ023>029-040800-
COASTAL MARINE OBSERVATIONS

STATION/POSITION TIME  TEMP    WIND        PRES    WAVE
                       AIR SEA DIR/SP/G            HT/PER
                 (UTC) (F)     (DEG/KT/KT) (MB)    (FT/S)
MOUNT DESERT ROC 0700   61     180/ 12/ 12 1009.5F
MATINICUS ROCK   0600   61     200/ 16/ 17 1008.7F
ISLE OF SHOALS   0600   71     210/ 12/ 13 1008.4S
JEFFREYS LEDGE   0603      64                N/A     3/ 5
CASHES LEDGE BUO 0650   67                 1009.2R   3/ 5
GEORGES BANK BUO 0550   71 66  200/ 10/ 12 1013.2    4/ 7
$$

.............KEY..............
   WCI - WIND CHILL
   TC  - TEMPERATURE IN CELSIUS
   VSB - VISIBILITY IN MILES
   HX  - HEAT INDEX
   FAIR- INDICATES FEW OR NO CLOUDS BELOW 12,000 FT, WITH NO
         SIGNIFICANT WEATHER AND/OR OBSTRUCTIONS TO VISIBILITY.




USA.gov is the U.S. government's official web portal to all federal, state and local government web resources and services.